This is the latest recevied weather packets stored in our database for station/object N4HAC. If no packets are shown the sender has not sent any weather packets the latest 10 day(s).
| Time | Temp. | Humidity | Pressure | Rain* | Wind** | Luminosity | Snow |
|---|---|---|---|---|---|---|---|
| 1777068124 | 27.22° C | 37% | 1001 hPa | 0 mm | - | 165 W/m² | - |
| 1777067819 | 27.22° C | 38% | 1001.1 hPa | 0 mm | - | 176 W/m² | - |
| 1777067518 | 27.22° C | 36% | 1001 hPa | 0 mm | - | 194 W/m² | - |
| 1777067217 | 27.22° C | 39% | 1001.2 hPa | 0 mm | - | 217 W/m² | - |
| 1777066913 | 26.67° C | 36% | 1001.1 hPa | 0 mm | - | 228 W/m² | - |
| 1777066608 | 26.11° C | 36% | 1001.1 hPa | 0 mm | - | 150 W/m² | - |
| 1777066305 | 26.67° C | 41% | 1001.4 hPa | 0 mm | - | 164 W/m² | - |
| 1777066005 | 27.22° C | 41% | 1001.2 hPa | 0 mm | - | 148 W/m² | - |
| 1777065700 | 26.67° C | 40% | 1001.1 hPa | 0 mm | - | 116 W/m² | - |
| 1777065395 | 26.67° C | 40% | 1001.2 hPa | 0 mm | - | 74 W/m² | - |
| 1777065090 | 27.78° C | 36% | 1001.2 hPa | 0 mm | - | 73 W/m² | - |
| 1777064788 | 27.78° C | 36% | 1001.1 hPa | 0 mm | - | 82 W/m² | - |
| 1777064484 | 28.33° C | 36% | 1001.1 hPa | 0 mm | - | 88 W/m² | - |
| 1777064181 | 28.89° C | 35% | 1001 hPa | 0 mm | - | 349 W/m² | - |
| 1777063875 | 29.44° C | 31% | 1001.1 hPa | 0 mm | - | 398 W/m² | - |
| 1777063570 | 29.44° C | 32% | 1001.4 hPa | 0 mm | - | 212 W/m² | - |
| 1777063266 | 29.44° C | 37% | 1001.1 hPa | 0 mm | - | 446 W/m² | - |
| 1777062963 | 29.44° C | 35% | 1001.1 hPa | 0 mm | - | 428 W/m² | - |
| 1777062661 | 28.89° C | 31% | 1001.2 hPa | 0 mm | - | 485 W/m² | - |
| 1777062357 | 29.44° C | 35% | 1000.9 hPa | 0 mm | - | 511 W/m² | - |
| 1777062055 | 28.33° C | 37% | 1001.2 hPa | 0 mm | - | 543 W/m² | - |
| 1777061751 | 27.78° C | 39% | 1001 hPa | 0 mm | - | 243 W/m² | - |
| 1777061448 | 28.33° C | 35% | 1001.4 hPa | 0 mm | - | 221 W/m² | - |
| 1777061144 | 28.33° C | 34% | 1001.4 hPa | 0 mm | - | 340 W/m² | - |
| 1777060839 | 27.78° C | 36% | 1001.5 hPa | 0 mm | - | 265 W/m² | - |
* Rain latest hour (hover to see other rain measurements)
** Current wind speed in m/s (hover to see current wind gust speed)